Date String (YYYY-MM-DD hh:mm:ss) UTC,Instrument flags,absolute air pressure of the measurement (hPa),sample flow rate (lpm),inlet stack bypass flow (lpm),air temperature of the measurement (°C),ambient temperature measured by the external sensor (°C),aerosol sample conditioner tube jacket temperature (°C),OPC LED temperature (°C),internal box temperature (°C),relative humidity of the measurement (%),span deviation,mass concentration of particles derived from Lorenz-Mie calculation of OPC scattering (μg/m³),mass concentration of particles derived from Lorenz-Mie calculation of OPC scattering (μg/m³),mass concentration of particles derived from Lorenz-Mie calculation of OPC scattering (μg/m³)
DateTimeUTC,F1_M11,P_M11,Q1_M11,Q2_M11,T1_M11,T2_M11,T3_M11,T4_M11,T5_M11,U1_M11,ZSPAN_M11,X0_M11,X2_M11,X1_M11
2023-10-06 18:00:00,SystemResetWarning,0842.8,5.00,000.00,028.0,026.5,000.0,036.4,029.6,17.7,0000.0,0009.99,0003.49,0002.76
2023-10-06 18:01:00,SystemResetWarning,0842.8,5.00,000.00,028.0,026.5,000.0,036.4,029.6,17.6,0000.0,0010.59,0003.49,0002.79
2023-10-06 18:02:00,SystemResetWarning,0842.8,4.99,000.00,028.0,026.5,000.0,036.4,029.7,17.6,0000.0,0010.66,0003.51,0002.81
2023-10-06 18:03:00,SystemResetWarning,0842.8,4.99,000.00,028.0,026.5,000.0,036.4,029.7,17.7,0000.0,0009.89,0003.53,0002.83
2023-10-06 18:04:00,SystemResetWarning,0842.8,5.01,000.00,028.0,026.5,000.0,036.4,029.7,17.6,0000.0,0009.25,0003.50,0002.85
2023-10-06 18:05:00,SystemResetWarning,0842.8,5.01,000.00,028.0,026.5,000.0,036.4,029.7,17.7,0000.0,0008.42,0003.43,0002.84
2023-10-06 18:06:00,SystemResetWarning,0842.8,5.00,000.00,028.0,026.5,000.0,036.4,029.7,17.7,0000.0,0008.68,0003.42,0002.85
2023-10-06 18:07:00,SystemResetWarning,0842.8,5.00,000.00,028.0,026.5,000.0,036.5,029.7,17.7,0000.0,0008.49,0003.46,0002.87
2023-10-06 18:08:00,SystemResetWarning,0842.8,5.00,000.00,028.1,026.6,000.0,036.5,029.8,17.7,0000.0,0008.42,0003.47,0002.90
2023-10-06 18:09:00,SystemResetWarning,0842.8,5.00,000.00,028.1,026.6,000.0,036.5,029.7,17.7,0000.0,0008.22,0003.48,0002.92
2023-10-06 18:10:00,SystemResetWarning,0842.8,5.00,000.00,028.1,026.6,000.0,036.5,029.7,17.8,0000.0,0008.31,0003.50,0002.92
2023-10-06 18:11:00,SystemResetWarning,0842.7,5.00,000.00,028.1,026.6,000.0,036.5,029.7,17.8,0000.0,0008.55,0003.46,0002.90
2023-10-06 18:12:00,SystemResetWarning,0842.8,5.00,000.00,028.1,026.6,000.0,036.4,029.7,17.8,0000.0,0008.18,0003.46,0002.92
2023-10-06 18:13:00,SystemResetWarning,0842.8,5.00,000.00,028.1,026.6,000.0,036.4,029.7,17.8,0000.0,0008.12,0003.47,0002.92
2023-10-06 18:14:00,SystemResetWarning,0842.8,5.01,000.00,028.0,026.6,000.0,036.4,029.7,17.8,0000.0,0008.03,0003.47,0002.93
2023-10-06 18:15:00,SystemResetWarning,0842.7,5.01,000.00,028.0,026.6,000.0,036.4,029.7,17.8,0000.0,0008.89,0003.46,0002.93
2023-10-06 18:16:00,SystemResetWarning,0842.8,4.99,000.00,028.0,026.5,000.0,036.4,029.6,17.8,0000.0,0009.06,0003.50,0002.96
2023-10-06 18:17:00,SystemResetWarning,0842.7,4.99,000.00,028.0,026.5,000.0,036.4,029.6,17.9,0000.0,0009.30,0003.57,0002.97
2023-10-06 18:18:00,SystemResetWarning,0842.7,4.99,000.00,028.0,026.5,000.0,036.4,029.6,17.8,0000.0,0009.45,0003.64,0003.01
2023-10-06 18:19:00,SystemResetWarning,0842.7,4.99,000.00,028.0,026.5,000.0,036.4,029.6,17.8,0000.0,0009.76,0003.63,0003.03
2023-10-06 18:20:00,SystemResetWarning,0842.7,5.00,000.00,028.0,026.5,000.0,036.4,029.6,17.8,0000.0,0010.54,0003.67,0003.06
2023-10-06 18:21:00,SystemResetWarning,0842.7,5.01,000.00,028.0,026.5,000.0,036.4,029.6,17.9,0000.0,0010.50,0003.72,0003.08
2023-10-06 18:22:00,SystemResetWarning,0842.7,5.01,000.00,028.0,026.5,000.0,036.4,029.6,17.9,0000.0,0010.20,0003.78,0003.10
2023-10-06 18:23:00,SystemResetWarning,0842.7,5.01,000.00,028.0,026.5,000.0,036.4,029.6,17.9,0000.0,0010.50,0003.80,0003.10
2023-10-06 18:24:00,SystemResetWarning,0842.7,5.00,000.00,028.0,026.5,000.0,036.4,029.6,17.9,0000.0,0010.64,0003.83,0003.11
2023-10-06 18:25:00,SystemResetWarning,0842.7,4.99,000.00,028.0,026.5,000.0,036.4,029.6,17.9,0000.0,0010.73,0003.83,0003.12
2023-10-06 18:26:00,SystemResetWarning,0842.7,4.99,000.00,028.0,026.5,000.0,036.4,029.6,18.0,0000.0,0010.86,0003.84,0003.14
2023-10-06 18:27:00,SystemResetWarning,0842.7,5.00,000.00,028.0,026.5,000.0,036.4,029.7,18.0,0000.0,0011.00,0003.85,0003.14
2023-10-06 18:28:00,SystemResetWarning,0842.7,4.99,000.00,028.0,026.5,000.0,036.4,029.6,18.0,0000.0,0010.68,0003.85,0003.15
2023-10-06 18:29:00,SystemResetWarning,0842.7,5.00,000.00,028.0,026.5,000.0,036.4,029.6,18.0,0000.0,0010.65,0003.82,0003.15
2023-10-06 18:30:00,SystemResetWarning,0842.6,5.00,000.00,028.0,026.5,000.0,036.4,029.6,17.9,0000.0,0010.25,0003.81,0003.15
2023-10-06 18:31:00,SystemResetWarning,0842.6,5.01,000.00,028.0,026.5,000.0,036.4,029.6,17.9,0000.0,0009.67,0003.83,0003.14
2023-10-06 18:32:00,SystemResetWarning,0842.6,5.00,000.00,028.0,026.5,000.0,036.4,029.6,17.9,0000.0,0010.19,0003.81,0003.14
2023-10-06 18:33:00,SystemResetWarning,0842.6,5.01,000.00,028.0,026.5,000.0,036.4,029.7,17.9,0000.0,0010.29,0003.78,0003.14
2023-10-06 18:34:00,SystemResetWarning,0842.6,5.00,000.00,028.0,026.5,000.0,036.4,029.6,18.0,0000.0,0009.90,0003.80,0003.15
2023-10-06 18:35:00,SystemResetWarning,0842.6,5.00,000.00,028.0,026.5,000.0,036.4,029.6,17.9,0000.0,0010.20,0003.84,0003.14
2023-10-06 18:36:00,SystemResetWarning,0842.6,5.00,000.00,028.0,026.5,000.0,036.4,029.6,18.0,0000.0,0010.64,0003.86,0003.14
2023-10-06 18:37:00,SystemResetWarning,0842.6,4.99,000.00,028.0,026.5,000.0,036.4,029.6,18.1,0000.0,0009.78,0003.88,0003.14
2023-10-06 18:38:00,SystemResetWarning,0842.5,4.99,000.00,028.0,026.5,000.0,036.4,029.6,18.1,0000.0,0009.48,0003.88,0003.14
2023-10-06 18:39:00,SystemResetWarning,0842.5,5.00,000.00,028.0,026.5,000.0,036.4,029.6,18.1,0000.0,0009.38,0003.88,0003.15
2023-10-06 18:40:00,SystemResetWarning,0842.5,5.01,000.00,028.0,026.5,000.0,036.4,029.6,18.2,0000.0,0009.21,0003.89,0003.14
2023-10-06 18:41:00,SystemResetWarning,0842.5,5.01,000.00,028.0,026.5,000.0,036.4,029.6,18.3,0000.0,0009.57,0003.95,0003.14
2023-10-06 18:42:00,SystemResetWarning,0842.4,5.00,000.00,028.0,026.5,000.0,036.4,029.6,18.1,0000.0,0009.57,0003.94,0003.14
2023-10-06 18:43:00,SystemResetWarning,0842.3,4.99,000.00,028.0,026.5,000.0,036.4,029.6,18.0,0000.0,0009.07,0003.93,0003.15
2023-10-06 18:44:00,SystemResetWarning,0842.3,4.99,000.00,028.0,026.5,000.0,036.4,029.6,18.0,0000.0,0010.07,0003.94,0003.14
2023-10-06 18:45:00,SystemResetWarning,0842.3,5.00,000.00,028.0,026.5,000.0,036.4,029.6,18.1,0000.0,0010.39,0003.92,0003.14
2023-10-06 18:46:00,SystemResetWarning,0842.3,5.00,000.00,028.0,026.5,000.0,036.4,029.6,18.1,0000.0,0010.01,0003.88,0003.15
2023-10-06 18:47:00,SystemResetWarning,0842.3,5.00,000.00,028.0,026.5,000.0,036.4,029.6,18.1,0000.0,0009.97,0003.85,0003.16
2023-10-06 18:48:00,SystemResetWarning,0842.3,5.00,000.00,028.0,026.5,000.0,036.4,029.6,18.1,0000.0,0010.29,0003.83,0003.16
2023-10-06 18:49:00,SystemResetWarning,0842.3,5.01,000.00,027.9,026.4,000.0,036.4,029.5,18.1,0000.0,0010.92,0003.83,0003.16
2023-10-06 18:50:00,SystemResetWarning,0842.3,5.01,000.00,027.9,026.4,000.0,036.4,029.5,18.1,0000.0,0011.22,0003.85,0003.17
2023-10-06 18:51:00,SystemResetWarning,0842.3,4.99,000.00,027.9,026.4,000.0,036.4,029.4,18.0,0000.0,0011.25,0003.86,0003.19
2023-10-06 18:52:00,SystemResetWarning,0842.3,5.00,000.00,027.9,026.3,000.0,036.4,029.4,18.1,0000.0,0011.68,0003.86,0003.20
2023-10-06 18:53:00,SystemResetWarning,0842.3,5.00,000.00,027.8,026.3,000.0,036.4,029.4,18.1,0000.0,0011.64,0003.87,0003.22
2023-10-06 18:54:00,SystemResetWarning,0842.3,5.01,000.00,027.8,026.3,000.0,036.3,029.4,18.1,0000.0,0011.63,0003.87,0003.23
2023-10-06 18:55:00,SystemResetWarning,0842.3,5.01,000.00,027.8,026.3,000.0,036.3,029.4,18.2,0000.0,0011.31,0003.88,0003.25
2023-10-06 18:56:00,SystemResetWarning,0842.3,5.01,000.00,027.8,026.3,000.0,036.3,029.4,18.2,0000.0,0011.23,0003.90,0003.25
2023-10-06 18:57:00,SystemResetWarning,0842.3,5.00,000.00,027.8,026.3,000.0,036.3,029.4,18.2,0000.0,0011.55,0003.93,0003.26
2023-10-06 18:58:00,SystemResetWarning,0842.3,4.99,000.00,027.8,026.3,000.0,036.3,029.4,18.2,0000.0,0011.49,0003.96,0003.27
2023-10-06 18:59:00,SystemResetWarning,0842.3,4.99,000.00,027.8,026.3,000.0,036.3,029.4,18.2,0000.0,0011.70,0003.98,0003.27
